Location: Fredericton
(45.9636°N, 66.6431°W)
Time: 17:43:49
(UTC-04:00)

Envisat - Visible Passes

Search period start: 21 January 2022 00:00
Search period end: 31 January 2022 00:00
Orbit: 764 x 766 km, 98.2° (Epoch: 21 January)

Date Brightness Start Highest point End Pass type
(mag) Time Alt. Az. Time Alt. Az. Time Alt. Az.
21 Jan 3.5 05:07:26 10° NNE 05:12:27 57° E 05:17:25 10° S visible
21 Jan 4.1 06:47:16 10° NNW 06:51:04 22° WNW 06:54:50 10° WSW visible
21 Jan 6.2 18:07:24 10° WSW 18:09:04 11° W 18:10:45 10° WNW visible
22 Jan 4.9 04:31:04 10° NE 04:35:22 27° E 04:39:37 10° SSE visible
22 Jan 3.3 06:09:44 10° N 06:14:31 42° WNW 06:19:15 10° SW visible
23 Jan 5.9 03:55:53 10° ENE 03:58:04 13° E 04:00:14 10° ESE visible
23 Jan 2.8 05:32:38 10° NNE 05:37:46 86° WNW 05:42:50 10° SSW visible
23 Jan 4.6 07:13:33 10° NNW 07:16:00 14° WNW 07:18:28 10° W visible
24 Jan 4.0 04:55:56 10° NNE 05:00:49 45° E 05:05:39 10° S visible
24 Jan 3.9 06:35:25 10° N 06:39:35 26° WNW 06:43:44 10° WSW visible
24 Jan 6.0 17:54:30 10° WSW 17:57:19 15° W 18:00:09 10° NW visible
25 Jan 5.2 04:19:47 10° NE 04:23:40 22° E 04:27:31 10° SE visible
25 Jan 3.1 05:58:02 10° N 06:02:59 52° WNW 06:07:53 10° SW visible
26 Jan 3.1 05:21:03 10° NNE 05:26:10 76° ESE 05:31:14 10° S visible
26 Jan 4.4 07:01:26 10° NNW 07:04:34 17° WNW 07:07:43 10° W visible
27 Jan 4.4 04:44:28 10° NNE 04:49:09 36° E 04:53:48 10° SSE visible
27 Jan 3.6 06:23:37 10° N 06:28:06 32° WNW 06:32:33 10° SW visible
28 Jan 5.5 04:08:37 10° NE 04:11:57 17° E 04:15:14 10° SE visible
28 Jan 2.9 05:46:22 10° N 05:51:25 65° WNW 05:56:26 10° SSW visible
29 Jan 3.4 05:09:30 10° NNE 05:14:33 61° E 05:19:34 10° S visible
29 Jan 4.2 06:49:27 10° NNW 06:53:07 20° WNW 06:56:46 10° WSW visible
29 Jan 6.4 18:10:07 10° W 18:11:12 11° W 18:12:18 10° WNW visible
30 Jan 4.8 04:33:05 10° NE 04:37:28 29° E 04:41:50 10° SSE visible
30 Jan 3.4 06:11:52 10° N 06:16:35 39° WNW 06:21:16 10° SW visible
